Location: Newark
(25.4297°S, 49.2719°W)
Time: 16:15:21
(UTC+00:00)

Vanguard 1 Rocket - Pass Details

Date: 25 November 2019
Orbit: 650 x 4226 km, 34.3° (Epoch: 09 December)

Event Time Altitude Azimuth Distance (km) Brightness Sun altitude
Rises 21:22:19 0° 247° (WSW) 8,251 15.3 4.9°
Reaches altitude 10° 21:27:50 10° 246° (WSW) 7,377 14.9 3.8°
Maximum altitude 21:54:43 87° 331° (NNW) 3,707 10.5 -1.8°
Drops below altitude 10° 22:12:10 10° 59° (ENE) 5,178 10.6 -5.4°
Enters shadow 22:13:24 - 59° (ENE) 5,426 10.6 -5.7°
Sets 22:15:15 0° 60° (ENE) 5,819 - -6.0°
